BAW675 LGPZ-EGLL

Flight info

Callsign BAW675
Flight time 2h 59m
Altitude 24000
Route MALED1E MALED M127 KRK L53 OLGAT/N0451F340 DCT AIOSA DCT PEVAL DCT SOTOV/N0450F360 DCT KPT DCT KUNOD DCT KRH DCT LIRSU DCT SPI DCT BUB L608 LOGAN LOGAN2H
Aircraft A320/M-SDE3FGIJ1KRWXY/SB1

Departure

Time 2026-05-06 14:04
Airport Aktion National Airport (LGPZ)

Arrival

Time 2026-05-06 17:04
Airport London Heathrow Airport (EGLL)
Time Latitude Longitude Altitude Speed Heading
2026-05-06 13:51 38.93038 20.77257 13 ft 0 kts 340°
2026-05-06 13:58 38.93032 20.77260 13 ft 2 kts 340°
2026-05-06 13:59 38.93015 20.77267 13 ft 3 kts 357°
2026-05-06 13:59 38.92997 20.77264 13 ft 3 kts 34°
2026-05-06 13:59 38.92983 20.77247 15 ft 3 kts 61°
2026-05-06 13:59 38.92977 20.77230 13 ft 1 kts 69°
2026-05-06 14:00 38.92976 20.77226 13 ft 0 kts 69°
2026-05-06 14:01 38.92978 20.77233 13 ft 2 kts 69°
2026-05-06 14:02 38.92982 20.77255 13 ft 3 kts 87°
2026-05-06 14:02 38.92982 20.77292 13 ft 5 kts 90°
2026-05-06 14:02 38.92975 20.77341 12 ft 6 kts 102°
2026-05-06 14:02 38.92963 20.77402 12 ft 8 kts 112°
2026-05-06 14:03 38.92916 20.77448 11 ft 10 kts 155°
2026-05-06 14:03 38.92856 20.77430 11 ft 11 kts 241°
2026-05-06 14:03 38.92816 20.77307 11 ft 27 kts 248°
2026-05-06 14:03 38.92663 20.76815 14 ft 90 kts 248°
2026-05-06 14:04 38.92362 20.75865 13 ft 140 kts 248°
2026-05-06 14:04 38.91967 20.74538 113 ft 171 kts 251°
2026-05-06 14:04 38.91648 20.73109 804 ft 167 kts 268°
2026-05-06 14:04 38.91763 20.71625 1393 ft 173 kts 279°
2026-05-06 14:05 38.91975 20.70013 1685 ft 193 kts 279°
2026-05-06 14:05 38.92198 20.68227 1956 ft 208 kts 278°
2026-05-06 14:05 38.92417 20.66372 2469 ft 212 kts 277°
2026-05-06 14:05 38.92629 20.64485 3102 ft 215 kts 277°
2026-05-06 14:06 38.92832 20.62582 3760 ft 216 kts 277°
2026-05-06 14:06 38.93215 20.60721 4378 ft 219 kts 296°
2026-05-06 14:06 38.94177 20.59140 4799 ft 236 kts 319°
2026-05-06 14:06 38.95531 20.57755 5159 ft 259 kts 320°
2026-05-06 14:07 38.96956 20.56305 5873 ft 268 kts 320°
2026-05-06 14:07 38.98426 20.54805 6659 ft 271 kts 320°
2026-05-06 14:07 38.99910 20.53284 7432 ft 275 kts 320°
2026-05-06 14:07 39.01410 20.51743 8271 ft 276 kts 320°
2026-05-06 14:08 39.02916 20.50189 9113 ft 278 kts 320°
2026-05-06 14:08 39.04427 20.48627 9989 ft 279 kts 319°
2026-05-06 14:08 39.05961 20.47042 10455 ft 291 kts 319°
2026-05-06 14:08 39.07601 20.45341 10585 ft 314 kts 319°
2026-05-06 14:09 39.09360 20.43516 10733 ft 333 kts 319°
2026-05-06 14:09 39.11189 20.41622 11178 ft 341 kts 319°
2026-05-06 14:09 39.13029 20.39718 11738 ft 345 kts 320°
2026-05-06 14:09 39.14915 20.37770 12315 ft 349 kts 320°
2026-05-06 14:10 39.16814 20.35805 12896 ft 352 kts 320°
2026-05-06 14:10 39.18735 20.33814 13459 ft 356 kts 320°
2026-05-06 14:10 39.20677 20.31801 14013 ft 359 kts 320°
2026-05-06 14:10 39.22633 20.29770 14524 ft 362 kts 320°
2026-05-06 14:11 39.24604 20.27733 15032 ft 364 kts 320°
2026-05-06 14:11 39.26568 20.25712 15539 ft 366 kts 320°
2026-05-06 14:11 39.28572 20.23650 16044 ft 369 kts 320°
2026-05-06 14:11 39.30582 20.21582 16542 ft 371 kts 320°
2026-05-06 14:12 39.32607 20.19495 17045 ft 373 kts 320°
2026-05-06 14:12 39.34639 20.17392 17551 ft 376 kts 320°
2026-05-06 14:12 39.36685 20.15269 18079 ft 378 kts 320°
2026-05-06 14:12 39.38738 20.13138 18565 ft 380 kts 319°
2026-05-06 14:13 39.40810 20.10990 19019 ft 382 kts 319°
2026-05-06 14:13 39.42892 20.08836 19467 ft 385 kts 320°
2026-05-06 14:13 39.44935 20.06573 19916 ft 386 kts 313°
2026-05-06 14:13 39.46825 20.04082 20364 ft 388 kts 313°
2026-05-06 14:14 39.48724 20.01572 20795 ft 391 kts 313°
2026-05-06 14:14 39.50633 19.99050 21208 ft 393 kts 313°
2026-05-06 14:14 39.52560 19.96505 21621 ft 396 kts 313°
2026-05-06 14:14 39.54471 19.93976 22024 ft 398 kts 313°
2026-05-06 14:15 39.56414 19.91406 22410 ft 401 kts 313°
2026-05-06 14:15 39.58372 19.88815 22798 ft 403 kts 313°
2026-05-06 14:15 39.60345 19.86205 23186 ft 405 kts 313°
2026-05-06 14:15 39.62325 19.83588 23578 ft 408 kts 313°
2026-05-06 14:16 39.64313 19.80955 23933 ft 409 kts 313°
2026-05-06 14:16 39.66309 19.78303 24251 ft 411 kts 313°
2026-05-06 14:16 39.68311 19.75638 24573 ft 413 kts 313°
2026-05-06 14:16 39.70321 19.72959 24895 ft 414 kts 313°
2026-05-06 14:17 39.72316 19.70297 25216 ft 416 kts 312°
2026-05-06 14:17 39.74339 19.67601 25527 ft 418 kts 312°
2026-05-06 14:17 39.76374 19.64888 25838 ft 419 kts 312°
2026-05-06 14:17 39.78414 19.62164 26153 ft 421 kts 312°
2026-05-06 14:18 39.80460 19.59431 26469 ft 423 kts 312°
2026-05-06 14:18 39.82512 19.56689 26785 ft 424 kts 312°
2026-05-06 14:18 39.84578 19.53929 27103 ft 426 kts 312°
2026-05-06 14:18 39.86644 19.51158 27484 ft 425 kts 312°
2026-05-06 14:19 39.88702 19.48399 27942 ft 424 kts 312°
2026-05-06 14:19 39.90755 19.45646 28444 ft 421 kts 311°
2026-05-06 14:19 39.92787 19.42917 28948 ft 418 kts 311°
2026-05-06 14:19 39.94785 19.40233 29427 ft 416 kts 311°
2026-05-06 14:20 39.96796 19.37527 29901 ft 415 kts 311°
2026-05-06 14:20 39.98804 19.34821 30339 ft 413 kts 311°
2026-05-06 14:20 40.00797 19.32131 30725 ft 412 kts 311°
2026-05-06 14:20 40.02784 19.29450 31095 ft 411 kts 311°
2026-05-06 14:21 40.04767 19.26773 31473 ft 410 kts 311°
2026-05-06 14:21 40.06746 19.24099 31839 ft 409 kts 311°
2026-05-06 14:21 40.08722 19.21423 32053 ft 409 kts 311°
2026-05-06 14:21 40.10713 19.18718 32087 ft 416 kts 310°
2026-05-06 14:22 40.14774 19.13195 32101 ft 424 kts 311°
2026-05-06 14:22 40.18882 19.07624 32090 ft 426 kts 311°
2026-05-06 14:23 40.22969 19.02067 32083 ft 426 kts 311°
2026-05-06 14:23 40.27470 18.96985 32081 ft 429 kts 319°
2026-05-06 14:24 40.32206 18.92217 32085 ft 429 kts 319°
2026-05-06 14:24 40.36944 18.87431 32082 ft 429 kts 319°
2026-05-06 14:25 40.41677 18.82641 32069 ft 429 kts 319°
2026-05-06 14:25 40.46405 18.77849 32085 ft 429 kts 319°
2026-05-06 14:26 40.51099 18.73078 32077 ft 429 kts 319°
2026-05-06 14:26 40.55816 18.68274 32067 ft 429 kts 319°
2026-05-06 14:27 40.60535 18.63463 32063 ft 429 kts 319°
2026-05-06 14:27 40.65252 18.58646 32067 ft 429 kts 319°
2026-05-06 14:28 40.69970 18.53825 32071 ft 429 kts 318°
2026-05-06 14:28 40.74684 18.48993 32067 ft 429 kts 318°
2026-05-06 14:29 40.79364 18.44178 32056 ft 428 kts 318°
2026-05-06 14:29 40.84070 18.39333 32059 ft 429 kts 318°
2026-05-06 14:30 40.88773 18.34484 32058 ft 428 kts 318°
2026-05-06 14:30 40.93476 18.29625 32070 ft 428 kts 317°
2026-05-06 14:31 40.98166 18.24768 32061 ft 428 kts 317°
2026-05-06 14:31 41.02831 18.19938 32056 ft 428 kts 317°
2026-05-06 14:32 41.07531 18.15067 32048 ft 428 kts 317°
2026-05-06 14:32 41.11884 18.10539 32044 ft 428 kts 317°
2026-05-06 14:33 41.16585 18.05638 32296 ft 431 kts 317°
2026-05-06 14:33 41.18908 18.03214 32669 ft 430 kts 317°
2026-05-06 14:33 41.21259 18.00755 33028 ft 429 kts 317°
2026-05-06 14:34 41.23600 17.98306 33401 ft 428 kts 317°
2026-05-06 14:34 41.25935 17.95865 33778 ft 426 kts 317°
2026-05-06 14:34 41.28265 17.93424 34145 ft 425 kts 317°
2026-05-06 14:34 41.30580 17.90993 34462 ft 424 kts 317°
2026-05-06 14:35 41.32894 17.88559 34747 ft 424 kts 317°
2026-05-06 14:35 41.35210 17.86127 35005 ft 424 kts 317°
2026-05-06 14:35 41.37497 17.83725 35262 ft 424 kts 317°
2026-05-06 14:35 41.39822 17.81282 35516 ft 424 kts 317°
2026-05-06 14:36 41.42135 17.78852 35772 ft 424 kts 317°
2026-05-06 14:36 41.44449 17.76414 35987 ft 424 kts 317°
2026-05-06 14:36 41.49093 17.71511 36024 ft 425 kts 317°
2026-05-06 14:37 41.53694 17.66632 36024 ft 425 kts 317°
2026-05-06 14:37 41.58337 17.61703 36024 ft 425 kts 317°
2026-05-06 14:38 41.62974 17.56775 36016 ft 425 kts 316°
2026-05-06 14:38 41.67566 17.51883 36035 ft 426 kts 317°
2026-05-06 14:39 41.72204 17.46937 36031 ft 426 kts 317°
2026-05-06 14:39 41.76844 17.41986 36024 ft 427 kts 317°
2026-05-06 14:40 41.81493 17.37021 36028 ft 427 kts 316°
2026-05-06 14:40 41.85354 17.32882 36025 ft 428 kts 316°
2026-05-06 14:41 41.90002 17.27889 36023 ft 428 kts 316°
2026-05-06 14:41 41.95413 17.22047 36029 ft 428 kts 316°
2026-05-06 14:42 41.99278 17.17799 36021 ft 428 kts 316°
2026-05-06 14:42 42.03884 17.12708 36023 ft 429 kts 316°
2026-05-06 14:43 42.08470 17.07636 36026 ft 429 kts 316°
2026-05-06 14:43 42.13090 17.02533 36020 ft 429 kts 316°
2026-05-06 14:44 42.17712 16.97424 36028 ft 430 kts 316°
2026-05-06 14:45 42.24649 16.89722 36017 ft 430 kts 316°
2026-05-06 14:45 42.29252 16.84610 36016 ft 431 kts 316°
2026-05-06 14:46 42.33863 16.79468 36017 ft 431 kts 315°
2026-05-06 14:46 42.38476 16.74321 36016 ft 431 kts 316°
2026-05-06 14:47 42.43098 16.69162 36032 ft 431 kts 315°
2026-05-06 14:47 42.47697 16.64002 36024 ft 431 kts 315°
2026-05-06 14:48 42.52320 16.58799 36011 ft 431 kts 315°
2026-05-06 14:48 42.56940 16.53595 36011 ft 431 kts 315°
2026-05-06 14:49 42.61556 16.48395 36002 ft 431 kts 315°
2026-05-06 14:49 42.66173 16.43177 36018 ft 431 kts 315°
2026-05-06 14:50 42.70788 16.37953 36012 ft 431 kts 315°
2026-05-06 14:50 42.75366 16.32755 36010 ft 431 kts 314°
2026-05-06 14:51 42.79970 16.27518 36005 ft 431 kts 314°
2026-05-06 14:51 42.84581 16.22267 36006 ft 432 kts 314°
2026-05-06 14:52 42.89207 16.16999 36011 ft 432 kts 314°
2026-05-06 14:52 42.93813 16.11732 36008 ft 432 kts 314°
2026-05-06 14:53 42.98383 16.06491 36000 ft 431 kts 314°
2026-05-06 14:53 43.02982 16.01206 35999 ft 431 kts 314°
2026-05-06 14:54 43.07569 15.95918 36005 ft 431 kts 313°
2026-05-06 14:54 43.12169 15.90618 36006 ft 431 kts 314°
2026-05-06 14:55 43.16747 15.85333 36005 ft 431 kts 313°
2026-05-06 14:55 43.21306 15.80059 36004 ft 431 kts 313°
2026-05-06 14:56 43.25882 15.74756 35999 ft 430 kts 313°
2026-05-06 14:56 43.30463 15.69431 35995 ft 430 kts 313°
2026-05-06 14:57 43.35035 15.64109 36027 ft 430 kts 313°
2026-05-06 14:57 43.39568 15.58822 35999 ft 429 kts 313°
2026-05-06 14:58 43.44119 15.53485 35991 ft 429 kts 313°
2026-05-06 14:58 43.48667 15.48150 35987 ft 429 kts 313°
2026-05-06 14:59 43.53224 15.42812 35987 ft 430 kts 313°
2026-05-06 14:59 43.57776 15.37468 36009 ft 430 kts 313°
2026-05-06 15:00 43.62321 15.32105 35996 ft 429 kts 313°
2026-05-06 15:00 43.66817 15.26789 36013 ft 429 kts 312°
2026-05-06 15:01 43.71349 15.21418 35992 ft 429 kts 312°
2026-05-06 15:01 43.75897 15.16033 35990 ft 429 kts 312°
2026-05-06 15:02 43.80435 15.10629 35987 ft 429 kts 312°
2026-05-06 15:02 43.84947 15.05249 35984 ft 429 kts 312°
2026-05-06 15:03 43.89471 14.99842 35979 ft 429 kts 312°
2026-05-06 15:03 43.93997 14.94423 35974 ft 429 kts 312°
2026-05-06 15:04 43.98518 14.89005 35965 ft 430 kts 312°
2026-05-06 15:04 44.03051 14.83567 35981 ft 431 kts 312°
2026-05-06 15:05 44.07319 14.78440 35971 ft 431 kts 312°
2026-05-06 15:05 44.11828 14.72998 35971 ft 432 kts 312°
2026-05-06 15:06 44.16367 14.67511 35972 ft 432 kts 312°
2026-05-06 15:06 44.20904 14.62011 35972 ft 432 kts 312°
2026-05-06 15:07 44.25447 14.56494 35973 ft 432 kts 312°
2026-05-06 15:07 44.29961 14.51009 35975 ft 432 kts 312°
2026-05-06 15:08 44.34504 14.45477 35975 ft 432 kts 312°
2026-05-06 15:08 44.39037 14.39925 35975 ft 432 kts 312°
2026-05-06 15:09 44.43538 14.34400 35991 ft 433 kts 313°
2026-05-06 15:09 44.48077 14.28841 35981 ft 433 kts 313°
2026-05-06 15:10 44.52624 14.23259 35980 ft 434 kts 313°
2026-05-06 15:10 44.57120 14.17712 35975 ft 434 kts 313°
2026-05-06 15:11 44.61647 14.12116 35972 ft 434 kts 313°
2026-05-06 15:11 44.66190 14.06501 35991 ft 435 kts 313°
2026-05-06 15:12 44.70738 14.00869 35976 ft 435 kts 313°
2026-05-06 15:12 44.75252 13.95264 35971 ft 435 kts 313°
2026-05-06 15:13 44.79787 13.89608 35963 ft 436 kts 312°
2026-05-06 15:13 44.84328 13.83931 35962 ft 436 kts 313°
2026-05-06 15:14 44.88877 13.78243 35977 ft 437 kts 312°
2026-05-06 15:14 44.93422 13.72548 35967 ft 437 kts 312°
2026-05-06 15:15 44.97966 13.66833 35957 ft 437 kts 312°
2026-05-06 15:15 45.02486 13.61134 35954 ft 438 kts 312°
2026-05-06 15:16 45.07038 13.55391 35948 ft 438 kts 312°
2026-05-06 15:16 45.11587 13.49638 35973 ft 438 kts 312°
2026-05-06 15:17 45.16136 13.43874 35947 ft 439 kts 312°
2026-05-06 15:17 45.20692 13.38098 35949 ft 439 kts 312°
2026-05-06 15:18 45.25223 13.32331 35933 ft 439 kts 312°
2026-05-06 15:18 45.29766 13.26521 35928 ft 440 kts 312°
2026-05-06 15:19 45.34352 13.20749 35936 ft 441 kts 313°
2026-05-06 15:19 45.39057 13.15148 35930 ft 441 kts 314°
2026-05-06 15:20 45.43780 13.09559 35931 ft 442 kts 313°
2026-05-06 15:20 45.48474 13.03922 35916 ft 441 kts 313°
2026-05-06 15:21 45.53143 12.98260 35910 ft 441 kts 313°
2026-05-06 15:21 45.57793 12.92618 35934 ft 441 kts 312°
2026-05-06 15:22 45.62478 12.86935 35920 ft 442 kts 312°
2026-05-06 15:22 45.67157 12.81228 35912 ft 442 kts 312°
2026-05-06 15:23 45.71845 12.75497 35912 ft 443 kts 312°
2026-05-06 15:23 45.76538 12.69755 35911 ft 443 kts 312°
2026-05-06 15:24 45.81216 12.64007 35943 ft 443 kts 312°
2026-05-06 15:24 45.85888 12.58268 35933 ft 444 kts 312°
2026-05-06 15:25 45.90582 12.52494 35935 ft 445 kts 312°
2026-05-06 15:25 45.95281 12.46698 35933 ft 445 kts 312°
2026-05-06 15:26 45.99946 12.40923 35927 ft 444 kts 312°
2026-05-06 15:26 46.04634 12.35112 35938 ft 444 kts 311°
2026-05-06 15:27 46.08532 12.30279 35927 ft 444 kts 311°
2026-05-06 15:27 46.13218 12.24437 35918 ft 444 kts 311°
2026-05-06 15:28 46.17837 12.18655 35906 ft 444 kts 311°
2026-05-06 15:28 46.22507 12.12800 35906 ft 444 kts 311°
2026-05-06 15:29 46.27176 12.06947 35902 ft 444 kts 311°
2026-05-06 15:29 46.31856 12.01069 35904 ft 445 kts 311°
2026-05-06 15:30 46.36507 11.95209 35893 ft 446 kts 311°
2026-05-06 15:30 46.41186 11.89297 35881 ft 446 kts 311°
2026-05-06 15:31 46.45856 11.83376 35866 ft 445 kts 311°
2026-05-06 15:31 46.50534 11.77438 35868 ft 446 kts 311°
2026-05-06 15:32 46.57539 11.68527 35864 ft 446 kts 311°
2026-05-06 15:32 46.62212 11.62559 35859 ft 446 kts 311°
2026-05-06 15:33 46.66844 11.56630 35864 ft 446 kts 311°
2026-05-06 15:33 46.71503 11.50640 35866 ft 446 kts 311°
2026-05-06 15:34 46.76166 11.44635 35899 ft 446 kts 311°
2026-05-06 15:34 46.80802 11.38662 35884 ft 446 kts 311°
2026-05-06 15:35 46.85415 11.32702 35857 ft 445 kts 311°
2026-05-06 15:35 46.90053 11.26685 35857 ft 445 kts 311°
2026-05-06 15:36 46.94725 11.20709 35833 ft 449 kts 315°
2026-05-06 15:36 46.99813 11.15332 35842 ft 451 kts 317°
2026-05-06 15:37 47.04905 11.09950 35834 ft 452 kts 316°
2026-05-06 15:37 47.09984 11.04577 35812 ft 452 kts 317°
2026-05-06 15:38 47.15092 10.99160 35790 ft 453 kts 317°
2026-05-06 15:38 47.20198 10.93720 35797 ft 453 kts 317°
2026-05-06 15:39 47.25301 10.88266 35794 ft 453 kts 317°
2026-05-06 15:39 47.30414 10.82801 35838 ft 453 kts 317°
2026-05-06 15:40 47.35518 10.77341 35824 ft 454 kts 317°
2026-05-06 15:40 47.40623 10.71852 35832 ft 454 kts 317°
2026-05-06 15:41 47.45698 10.66372 35864 ft 454 kts 317°
2026-05-06 15:41 47.50802 10.60846 35868 ft 454 kts 317°
2026-05-06 15:42 47.55917 10.55314 35885 ft 455 kts 317°
2026-05-06 15:42 47.61039 10.49756 35911 ft 456 kts 317°
2026-05-06 15:43 47.66128 10.44214 35895 ft 457 kts 317°
2026-05-06 15:43 47.71251 10.38627 35889 ft 457 kts 317°
2026-05-06 15:44 47.76363 10.32980 35878 ft 456 kts 316°
2026-05-06 15:44 47.81293 10.27031 35861 ft 455 kts 314°
2026-05-06 15:45 47.86137 10.20958 35850 ft 455 kts 314°
2026-05-06 15:45 47.90986 10.14943 35879 ft 456 kts 315°
2026-05-06 15:46 47.95905 10.08927 35853 ft 457 kts 315°
2026-05-06 15:46 48.00804 10.02943 35847 ft 457 kts 315°
2026-05-06 15:47 48.05710 9.96896 35841 ft 457 kts 315°
2026-05-06 15:47 48.10573 9.90875 35843 ft 457 kts 315°
2026-05-06 15:48 48.15478 9.84795 35879 ft 457 kts 315°
2026-05-06 15:48 48.20376 9.78715 35856 ft 457 kts 315°
2026-05-06 15:49 48.25283 9.72611 35850 ft 458 kts 315°
2026-05-06 15:49 48.30185 9.66484 35825 ft 458 kts 315°
2026-05-06 15:50 48.34949 9.60216 35825 ft 454 kts 309°
2026-05-06 15:50 48.39344 9.53374 35819 ft 455 kts 309°
2026-05-06 15:51 48.43751 9.46511 35845 ft 455 kts 309°
2026-05-06 15:51 48.48141 9.39659 35834 ft 455 kts 309°
2026-05-06 15:52 48.52541 9.32765 35843 ft 456 kts 309°
2026-05-06 15:52 48.56938 9.25862 35845 ft 456 kts 309°
2026-05-06 15:53 48.61332 9.18966 35845 ft 456 kts 309°
2026-05-06 15:53 48.65695 9.12080 35864 ft 456 kts 309°
2026-05-06 15:54 48.70084 9.05137 35854 ft 456 kts 309°
2026-05-06 15:54 48.74472 8.98169 35848 ft 456 kts 308°
2026-05-06 15:55 48.78856 8.91198 35845 ft 457 kts 308°
2026-05-06 15:55 48.83240 8.84214 35842 ft 457 kts 308°
2026-05-06 15:56 48.87593 8.77259 35854 ft 457 kts 309°
2026-05-06 15:56 48.91969 8.70241 35850 ft 457 kts 309°
2026-05-06 15:57 48.96339 8.63212 35837 ft 457 kts 309°
2026-05-06 15:57 49.00332 8.56753 35837 ft 457 kts 309°
2026-05-06 15:58 49.04579 8.49543 35829 ft 456 kts 307°
2026-05-06 15:58 49.08750 8.42237 35830 ft 456 kts 307°
2026-05-06 15:59 49.12907 8.34980 35830 ft 456 kts 307°
2026-05-06 15:59 49.17106 8.27693 35828 ft 456 kts 307°
2026-05-06 16:00 49.21312 8.20397 35828 ft 456 kts 307°
2026-05-06 16:00 49.25481 8.13150 35833 ft 456 kts 307°
2026-05-06 16:01 49.29672 8.05838 35830 ft 456 kts 307°
2026-05-06 16:01 49.33849 7.98524 35841 ft 456 kts 308°
2026-05-06 16:02 49.38025 7.91198 35825 ft 455 kts 308°
2026-05-06 16:02 49.42166 7.83894 35813 ft 455 kts 307°
2026-05-06 16:03 49.46327 7.76525 35814 ft 455 kts 307°
2026-05-06 16:03 49.50468 7.69205 35816 ft 455 kts 308°
2026-05-06 16:04 49.54633 7.61824 35825 ft 455 kts 308°
2026-05-06 16:04 49.58757 7.54475 35814 ft 456 kts 308°
2026-05-06 16:05 49.62898 7.47067 35803 ft 456 kts 307°
2026-05-06 16:05 49.67040 7.39632 35806 ft 456 kts 307°
2026-05-06 16:06 49.71185 7.32193 35811 ft 456 kts 307°
2026-05-06 16:06 49.75296 7.24799 35822 ft 456 kts 307°
2026-05-06 16:07 49.79438 7.17327 35836 ft 456 kts 307°
2026-05-06 16:07 49.83558 7.09856 35831 ft 456 kts 307°
2026-05-06 16:08 49.87636 7.02421 35829 ft 455 kts 307°
2026-05-06 16:08 49.91743 6.94928 35827 ft 455 kts 307°
2026-05-06 16:09 49.95853 6.87440 35837 ft 455 kts 307°
2026-05-06 16:09 49.99714 6.80375 35852 ft 455 kts 307°
2026-05-06 16:10 50.03799 6.72870 35849 ft 454 kts 307°
2026-05-06 16:10 50.07845 6.65402 35847 ft 453 kts 307°
2026-05-06 16:11 50.11914 6.57887 35842 ft 453 kts 307°
2026-05-06 16:11 50.15970 6.50367 35835 ft 453 kts 307°
2026-05-06 16:12 50.19782 6.42598 35864 ft 449 kts 299°
2026-05-06 16:12 50.23086 6.34323 35859 ft 449 kts 299°
2026-05-06 16:13 50.26371 6.26099 35878 ft 448 kts 299°
2026-05-06 16:13 50.29669 6.17811 35877 ft 448 kts 299°
2026-05-06 16:14 50.32955 6.09526 35873 ft 447 kts 299°
2026-05-06 16:14 50.36213 6.01288 35891 ft 447 kts 299°
2026-05-06 16:15 50.39490 5.92988 35895 ft 447 kts 300°
2026-05-06 16:15 50.42739 5.84733 35907 ft 447 kts 299°
2026-05-06 16:16 50.45453 5.77812 35899 ft 447 kts 299°
2026-05-06 16:16 50.48702 5.69495 35908 ft 447 kts 299°
2026-05-06 16:17 50.51941 5.61155 35911 ft 447 kts 298°
2026-05-06 16:17 50.55067 5.52704 35898 ft 447 kts 297°
2026-05-06 16:18 50.58100 5.44174 35894 ft 447 kts 297°
2026-05-06 16:18 50.61154 5.35645 35894 ft 447 kts 297°
2026-05-06 16:19 50.64212 5.27175 35895 ft 448 kts 297°
2026-05-06 16:19 50.67288 5.18621 35895 ft 448 kts 297°
2026-05-06 16:20 50.70353 5.10071 35901 ft 448 kts 297°
2026-05-06 16:20 50.73413 5.01495 35900 ft 447 kts 297°
2026-05-06 16:21 50.76456 4.92931 35900 ft 447 kts 297°
2026-05-06 16:21 50.79475 4.84408 35903 ft 447 kts 297°
2026-05-06 16:22 50.82511 4.75813 35904 ft 447 kts 297°
2026-05-06 16:22 50.85536 4.67221 35912 ft 446 kts 297°
2026-05-06 16:23 50.88540 4.58682 35913 ft 446 kts 297°
2026-05-06 16:23 50.91564 4.50151 35910 ft 445 kts 298°
2026-05-06 16:24 50.94782 4.41734 35908 ft 445 kts 300°
2026-05-06 16:24 50.98058 4.33376 35906 ft 445 kts 300°
2026-05-06 16:25 51.01299 4.25000 35903 ft 445 kts 300°
2026-05-06 16:25 51.04484 4.16637 35915 ft 445 kts 299°
2026-05-06 16:26 51.07678 4.08178 35912 ft 445 kts 299°
2026-05-06 16:26 51.10870 3.99731 35906 ft 445 kts 299°
2026-05-06 16:27 51.14057 3.91287 35908 ft 445 kts 299°
2026-05-06 16:27 51.17218 3.82879 35907 ft 445 kts 299°
2026-05-06 16:28 51.20392 3.74406 35917 ft 444 kts 299°
2026-05-06 16:28 51.23553 3.65928 35919 ft 444 kts 299°
2026-05-06 16:29 51.26705 3.57454 35927 ft 443 kts 299°
2026-05-06 16:29 51.29850 3.48981 35934 ft 443 kts 299°
2026-05-06 16:30 51.32457 3.41930 35944 ft 442 kts 298°
2026-05-06 16:30 51.35709 3.31800 35946 ft 439 kts 289°
2026-05-06 16:31 51.37869 3.22659 35953 ft 438 kts 289°
2026-05-06 16:31 51.40020 3.13534 35949 ft 437 kts 289°
2026-05-06 16:32 51.42114 3.04646 35956 ft 437 kts 289°
2026-05-06 16:32 51.44257 2.95527 35949 ft 437 kts 289°
2026-05-06 16:33 51.46353 2.86541 35955 ft 437 kts 289°
2026-05-06 16:34 51.49541 2.72843 35957 ft 436 kts 289°
2026-05-06 16:34 51.51639 2.63765 35956 ft 436 kts 289°
2026-05-06 16:35 51.53739 2.54625 35957 ft 436 kts 289°
2026-05-06 16:35 51.55840 2.45469 35961 ft 436 kts 289°
2026-05-06 16:36 51.57930 2.36338 35950 ft 429 kts 289°
2026-05-06 16:36 51.59969 2.27399 35961 ft 424 kts 289°
2026-05-06 16:37 51.61981 2.18549 35958 ft 424 kts 289°
2026-05-06 16:37 51.63989 2.09626 35961 ft 425 kts 289°
2026-05-06 16:37 51.64993 2.05149 35817 ft 424 kts 289°
2026-05-06 16:38 51.66005 2.00625 34718 ft 437 kts 288°
2026-05-06 16:38 51.67050 1.95951 33667 ft 447 kts 289°
2026-05-06 16:38 51.68106 1.91215 32764 ft 450 kts 289°
2026-05-06 16:38 51.69168 1.86440 31855 ft 453 kts 289°
2026-05-06 16:39 51.70229 1.81673 31163 ft 451 kts 288°
2026-05-06 16:39 51.71289 1.76908 30412 ft 451 kts 288°
2026-05-06 16:39 51.72331 1.72199 29726 ft 449 kts 288°
2026-05-06 16:39 51.73374 1.67483 29035 ft 445 kts 288°
2026-05-06 16:40 51.74220 1.62712 28379 ft 438 kts 278°
2026-05-06 16:40 51.74485 1.57856 27731 ft 431 kts 268°
2026-05-06 16:40 51.74249 1.53063 27071 ft 426 kts 263°
2026-05-06 16:40 51.73938 1.48311 26427 ft 423 kts 263°
2026-05-06 16:41 51.73632 1.43615 25808 ft 419 kts 264°
2026-05-06 16:41 51.73329 1.38954 25174 ft 416 kts 264°
2026-05-06 16:41 51.73031 1.34385 24580 ft 413 kts 264°
2026-05-06 16:41 51.72731 1.29795 23995 ft 409 kts 264°
2026-05-06 16:42 51.72430 1.25245 23408 ft 406 kts 264°
2026-05-06 16:42 51.72131 1.20738 22732 ft 403 kts 264°
2026-05-06 16:42 51.71831 1.16258 22096 ft 399 kts 264°
2026-05-06 16:42 51.71531 1.11816 21488 ft 395 kts 264°
2026-05-06 16:43 51.71237 1.07481 20904 ft 392 kts 264°
2026-05-06 16:43 51.70936 1.03073 20335 ft 389 kts 264°
2026-05-06 16:43 51.70643 0.98813 19800 ft 386 kts 264°
2026-05-06 16:43 51.70347 0.94528 19294 ft 383 kts 264°
2026-05-06 16:44 51.70054 0.90279 18816 ft 379 kts 264°
2026-05-06 16:44 51.69857 0.87434 18475 ft 377 kts 264°
2026-05-06 16:44 51.69471 0.81895 17688 ft 374 kts 264°
2026-05-06 16:44 51.69178 0.77750 17122 ft 370 kts 264°
2026-05-06 16:45 51.68886 0.73645 16589 ft 366 kts 264°
2026-05-06 16:45 51.68597 0.69588 15993 ft 364 kts 264°
2026-05-06 16:45 51.68309 0.65545 15412 ft 361 kts 264°
2026-05-06 16:45 51.68022 0.61526 14858 ft 359 kts 264°
2026-05-06 16:46 51.67737 0.57605 14696 ft 345 kts 264°
2026-05-06 16:46 51.67464 0.53892 14568 ft 331 kts 264°
2026-05-06 16:46 51.67199 0.50277 14443 ft 319 kts 264°
2026-05-06 16:46 51.66943 0.46785 14312 ft 308 kts 264°
2026-05-06 16:47 51.66698 0.43401 14068 ft 303 kts 264°
2026-05-06 16:47 51.66484 0.40442 13812 ft 300 kts 265°
2026-05-06 16:47 51.66242 0.37121 13466 ft 297 kts 265°
2026-05-06 16:47 51.66002 0.33823 13123 ft 295 kts 265°
2026-05-06 16:48 51.65760 0.30553 12753 ft 294 kts 265°
2026-05-06 16:48 51.65517 0.27323 12362 ft 294 kts 265°
2026-05-06 16:48 51.65270 0.24075 12019 ft 292 kts 265°
2026-05-06 16:48 51.65027 0.20858 11868 ft 284 kts 264°
2026-05-06 16:49 51.64788 0.17744 11741 ft 276 kts 265°
2026-05-06 16:49 51.64558 0.14718 11612 ft 268 kts 265°
2026-05-06 16:49 51.64370 0.11770 11483 ft 260 kts 267°
2026-05-06 16:49 51.64214 0.08909 11317 ft 254 kts 268°
2026-05-06 16:50 51.64067 0.06078 11016 ft 254 kts 268°
2026-05-06 16:50 51.63921 0.03234 10706 ft 255 kts 269°
2026-05-06 16:50 51.63774 0.00439 10462 ft 253 kts 267°
2026-05-06 16:50 51.63673 -0.01470 10273 ft 254 kts 267°
2026-05-06 16:51 51.63469 -0.05229 9912 ft 253 kts 267°
2026-05-06 16:51 51.63313 -0.08045 9629 ft 252 kts 267°
2026-05-06 16:51 51.63151 -0.10852 9179 ft 257 kts 266°
2026-05-06 16:51 51.62961 -0.13685 9019 ft 250 kts 265°
2026-05-06 16:52 51.62766 -0.16436 8857 ft 244 kts 266°
2026-05-06 16:52 51.62564 -0.19132 8593 ft 242 kts 265°
2026-05-06 16:52 51.62381 -0.21831 8279 ft 242 kts 266°
2026-05-06 16:52 51.62194 -0.24525 7971 ft 241 kts 266°
2026-05-06 16:53 51.62020 -0.27173 7669 ft 241 kts 266°
2026-05-06 16:53 51.61864 -0.29852 7385 ft 241 kts 266°
2026-05-06 16:53 51.61703 -0.32525 7066 ft 239 kts 266°
2026-05-06 16:53 51.61535 -0.35189 6809 ft 238 kts 263°
2026-05-06 16:54 51.61381 -0.37849 6533 ft 239 kts 267°
2026-05-06 16:54 51.61218 -0.40503 6290 ft 238 kts 266°
2026-05-06 16:54 51.61053 -0.43152 6017 ft 237 kts 265°
2026-05-06 16:54 51.60887 -0.45781 5713 ft 236 kts 266°
2026-05-06 16:55 51.60732 -0.48407 5460 ft 233 kts 266°
2026-05-06 16:55 51.60566 -0.50982 5492 ft 234 kts 265°
2026-05-06 16:55 51.60409 -0.53566 5457 ft 234 kts 266°
2026-05-06 16:55 51.60257 -0.56174 5150 ft 234 kts 266°
2026-05-06 16:56 51.60111 -0.58762 5006 ft 232 kts 266°
2026-05-06 16:56 51.59945 -0.61353 4886 ft 232 kts 265°
2026-05-06 16:56 51.59781 -0.63952 4601 ft 232 kts 266°
2026-05-06 16:56 51.59614 -0.66521 4315 ft 232 kts 266°
2026-05-06 16:57 51.59427 -0.69085 4075 ft 229 kts 266°
2026-05-06 16:57 51.59238 -0.71640 3999 ft 230 kts 266°
2026-05-06 16:57 51.59061 -0.74177 4004 ft 231 kts 267°
2026-05-06 16:57 51.58739 -0.76706 3940 ft 233 kts 248°
2026-05-06 16:58 51.57715 -0.78682 3666 ft 233 kts 213°
2026-05-06 16:58 51.56181 -0.79519 3313 ft 236 kts 186°
2026-05-06 16:58 51.54542 -0.79695 3036 ft 236 kts 181°
2026-05-06 16:58 51.52898 -0.79790 2999 ft 232 kts 180°
2026-05-06 16:59 51.51288 -0.79864 3003 ft 232 kts 178°
2026-05-06 16:59 51.49732 -0.79374 3002 ft 229 kts 153°
2026-05-06 16:59 51.48473 -0.77882 3004 ft 224 kts 126°
2026-05-06 16:59 51.47746 -0.75718 3004 ft 219 kts 101°
2026-05-06 17:00 51.47613 -0.73323 3009 ft 216 kts 86°
2026-05-06 17:00 51.47632 -0.70973 2869 ft 212 kts 85°
2026-05-06 17:00 51.47649 -0.68592 2610 ft 214 kts 85°
2026-05-06 17:00 51.47662 -0.66234 2325 ft 207 kts 86°
2026-05-06 17:01 51.47675 -0.63973 2051 ft 198 kts 87°
2026-05-06 17:01 51.47685 -0.61841 1806 ft 184 kts 86°
2026-05-06 17:01 51.47694 -0.59892 1558 ft 165 kts 87°
2026-05-06 17:01 51.47701 -0.58164 1337 ft 147 kts 85°
2026-05-06 17:02 51.47710 -0.56554 1128 ft 143 kts 85°
2026-05-06 17:02 51.47718 -0.54977 929 ft 140 kts 84°
2026-05-06 17:02 51.47726 -0.53399 743 ft 141 kts 86°
2026-05-06 17:02 51.47733 -0.51843 537 ft 139 kts 84°
2026-05-06 17:03 51.47738 -0.50806 419 ft 140 kts 86°
2026-05-06 17:03 51.47745 -0.49248 222 ft 140 kts 86°
2026-05-06 17:03 51.47757 -0.47251 91 ft 123 kts 85°
2026-05-06 17:03 51.47759 -0.46121 90 ft 77 kts 91°
2026-05-06 17:04 51.47762 -0.45672 83 ft 44 kts 89°
2026-05-06 17:04 51.47651 -0.45470 84 ft 22 kts 181°
2026-05-06 17:04 51.47615 -0.45471 85 ft 1 kts 181°
2026-05-06 17:04 51.47609 -0.45471 85 ft 1 kts 181°
2026-05-06 17:05 51.47599 -0.45493 87 ft 7 kts 240°
2026-05-06 17:05 51.47596 -0.45645 89 ft 17 kts 271°
2026-05-06 17:05 51.47595 -0.45841 88 ft 18 kts 269°
2026-05-06 17:05 51.47595 -0.46057 87 ft 20 kts 270°
2026-05-06 17:06 51.47596 -0.46287 91 ft 21 kts 270°
2026-05-06 17:06 51.47594 -0.46531 92 ft 23 kts 268°
2026-05-06 17:06 51.47592 -0.46790 90 ft 23 kts 269°
2026-05-06 17:06 51.47585 -0.47058 89 ft 22 kts 267°
2026-05-06 17:07 51.47581 -0.47295 89 ft 21 kts 270°
2026-05-06 17:07 51.47583 -0.47540 87 ft 23 kts 270°
2026-05-06 17:07 51.47583 -0.47801 89 ft 18 kts 269°
2026-05-06 17:07 51.47580 -0.47991 90 ft 18 kts 268°
2026-05-06 17:08 51.47577 -0.48200 88 ft 20 kts 270°
2026-05-06 17:08 51.47573 -0.48416 88 ft 17 kts 267°
2026-05-06 17:08 51.47472 -0.48475 85 ft 19 kts 178°
2026-05-06 17:08 51.47331 -0.48474 85 ft 21 kts 182°
2026-05-06 17:09 51.47178 -0.48477 85 ft 23 kts 180°
2026-05-06 17:09 51.47044 -0.48499 88 ft 11 kts 248°
2026-05-06 17:09 51.47048 -0.48567 87 ft 7 kts 255°
2026-05-06 17:09 51.47047 -0.48593 89 ft 0 kts 270°